Weather History for KHZY - February, 2013

Change the Weather History Date:

Sunday, February 10, 2013

  Actual Average (KYNG) Record (KYNG)
Temperature  
Mean Temperature 30 °F 27 °F  
Max Temperature 44 °F 35 °F 62 °F (1965)
Min Temperature 17 °F 20 °F -15 °F (1934)
Degree Days  
Heating Degree Days 34 38  
Month to date heating degree days 383  
Since 1 July heating degree days 4006  
Cooling Degree Days 0 0  
Month to date cooling degree days 0  
Year to date cooling degree days 0  
Moisture  
Dew Point 14 °F    
Average Humidity 50    
Maximum Humidity 74    
Minimum Humidity 30    
Precipitation  
Precipitation 0.00 in 0.08 in - ()
Month to date precipitation 0.75  
Year to date precipitation 3.30  
Snow  
Snow 0.00 in 0.40 in - ()
Month to date snowfall 4.5  
Since 1 July snowfall 40.5  
Snow Depth -    
Sea Level Pressure  
Sea Level Pressure 30.16 in    
Wind  
Wind Speed 9 mph (SSE)    
Max Wind Speed 15 mph    
Max Gust Speed 22 mph    
Visibility 10 miles    
Events      
T = Trace of Precipitation, MM = Missing Value Source: NWS Daily Summary

Daily Weather History Graph

Daily Weather History Graph

Search for Another Location

Airport or City:

Trip Planner

Search our weather history database for the weather conditions in past years. The results will help you decide how hot, cold, wet, or windy it might be!

Date:

Astronomy

Feb. 10, 2013 Rise Set
Actual Time 7:24 AM EST 5:50 PM EST
Civil Twilight 6:55 AM EST 6:18 PM EST
Nautical Twilight 6:22 AM EST 6:51 PM EST
Astronomical Twilight 5:50 AM EST 7:24 PM EST
Moon 7:12 AM EST (2/10) 6:40 PM EST (2/10)
Length of Visible Light 11h 23m
Length of Day
10h 25m
New Moon, 0% of the Moon is Illuminated
Feb 10
New Moon
Feb 17
First Quarter
Feb 25
Full
Mar 4
Last Quarter
Mar 11
New

Hourly Weather History & Observations

Time (EST) Temp. Windchill Dew Point Humidity Pressure Visibility Wind Dir Wind Speed Gust Speed Precip Events Conditions
12:53 AM 18.0 °F 9.8 °F 10.0 °F 71% 30.37 in 10.0 mi SSE 5.8 mph - N/A   Clear
1:53 AM 17.1 °F 7.6 °F 10.0 °F 74% 30.36 in 10.0 mi SE 6.9 mph - N/A   Clear
2:53 AM 18.0 °F 8.7 °F 10.0 °F 71% 30.35 in 10.0 mi SE 6.9 mph - N/A   Clear
3:53 AM 17.1 °F 7.6 °F 9.0 °F 71% 30.32 in 10.0 mi SE 6.9 mph - N/A   Clear
4:53 AM 17.1 °F 8.7 °F 9.0 °F 71% 30.32 in 10.0 mi SE 5.8 mph - N/A   Clear
5:53 AM 19.0 °F 10.0 °F 10.0 °F 68% 30.31 in 10.0 mi SSE 6.9 mph - N/A   Clear
6:53 AM 19.0 °F 9.0 °F 10.0 °F 68% 30.32 in 10.0 mi SSE 8.1 mph - N/A   Clear
7:53 AM 19.0 °F 8.2 °F 10.9 °F 71% 30.32 in 10.0 mi SE 9.2 mph - N/A   Clear
8:53 AM 21.0 °F 10.6 °F 10.9 °F 65% 30.30 in 10.0 mi SSE 9.2 mph - N/A   Clear
9:53 AM 25.0 °F 14.8 °F 12.0 °F 58% 30.27 in 10.0 mi SSE 10.4 mph - N/A   Clear
10:53 AM 28.9 °F 20.4 °F 12.0 °F 49% 30.21 in 10.0 mi SE 9.2 mph - N/A   Clear
11:53 AM 37.0 °F 29.3 °F 12.9 °F 37% 30.23 in 10.0 mi South 11.5 mph - N/A   Partly Cloudy
12:53 PM 39.9 °F 33.9 °F 12.9 °F 33% 30.17 in 10.0 mi South 9.2 mph - N/A   Clear
1:53 PM 43.0 °F 36.4 °F 12.9 °F 30% 30.11 in 10.0 mi SSE 12.7 mph - N/A   Clear
2:53 PM 44.1 °F 38.6 °F 15.1 °F 31% 30.09 in 10.0 mi SSE 10.4 mph - N/A   Overcast
3:53 PM 43.0 °F 37.7 °F 17.1 °F 35% 30.09 in 10.0 mi SSE 9.2 mph - N/A   Overcast
4:53 PM 44.1 °F 38.1 °F 17.1 °F 34% 30.06 in 10.0 mi South 11.5 mph - N/A   Overcast
5:53 PM 44.1 °F 38.1 °F 16.0 °F 32% 30.04 in 10.0 mi SE 11.5 mph - N/A   Overcast
6:53 PM 43.0 °F 38.2 °F 17.1 °F 35% 30.03 in 10.0 mi SSE 8.1 mph - N/A   Overcast
7:53 PM 42.1 °F 36.1 °F 18.0 °F 38% 29.99 in 10.0 mi SE 10.4 mph - N/A   Overcast
8:53 PM 42.1 °F 34.9 °F 19.0 °F 40% 29.98 in 10.0 mi SE 13.8 mph 20.7 mph N/A   Overcast
9:53 PM 41.0 °F 33.1 °F 19.9 °F 43% 29.94 in 10.0 mi SE 15.0 mph 21.9 mph N/A   Overcast
10:53 PM 42.1 °F 34.9 °F 19.9 °F 41% 29.90 in 10.0 mi SSE 13.8 mph 21.9 mph N/A   Overcast
11:53 PM 42.1 °F 34.5 °F 21.0 °F 43% 29.87 in 10.0 mi South 15.0 mph - N/A   Overcast